Change the Weather History Date:

Friday, February 21, 2014

  Actual Average Record
Temperature  
Mean Temperature 28 °F -  
Max Temperature 33 °F 35 °F 33 °F (2014)
Min Temperature 24 °F 6 °F 15 °F (2015)
Degree Days  
Heating Degree Days 36    
Moisture  
Dew Point 18 °F    
Average Humidity 64    
Maximum Humidity 86    
Minimum Humidity 47    
Precipitation  
Precipitation 0.00 in - - ()
Sea Level Pressure  
Sea Level Pressure 29.93 in    
Wind  
Wind Speed 7 mph (WSW)    
Max Wind Speed 24 mph    
Max Gust Speed 31 mph    
Visibility 8 miles    
Events Snow    
Averages and records for this station are not official NWS values.
T = Trace of Precipitation, MM = Missing Value Source: NWS Daily Summary

Daily Weather History Graph

Daily Weather History Graph

Search for Another Location

Airport or City:

Trip Planner

Search our weather history database for the weather conditions in past years. The results will help you decide how hot, cold, wet, or windy it might be!

Date:

Astronomy

Feb. 21, 2014 Rise Set
Actual Time 7:11 AM MST 6:03 PM MST
Civil Twilight 6:43 AM MST 6:32 PM MST
Nautical Twilight 6:10 AM MST 7:04 PM MST
Astronomical Twilight 5:37 AM MST 7:37 PM MST
Moon 12:09 AM MST (2/21) 10:29 AM MST (2/21)
Length of Visible Light 11h 48m
Length of Day
10h 51m
Waning Gibbous, 60% of the Moon is Illuminated
Feb 21
Waning Gibbous
Feb 22
Last Quarter
Mar 1
New
Mar 8
First Quarter
Mar 16
Full

Hourly Weather History & Observations

Time (MST) Temp. Windchill Dew Point Humidity Pressure Visibility Wind Dir Wind Speed Gust Speed Precip Events Conditions
12:15 AM 24.8 °F 17.9 °F 19.4 °F 80% 29.96 in 2.5 mi ESE 5.8 mph - N/A Snow Light Snow
12:35 AM 24.8 °F 16.1 °F 19.4 °F 80% 29.96 in 4.0 mi SSE 8.1 mph - N/A Snow Light Snow
12:55 AM 24.8 °F 16.1 °F 19.4 °F 80% 29.96 in 3.0 mi SE 8.1 mph - N/A Snow Light Snow
1:15 AM 26.6 °F 18.2 °F 19.4 °F 74% 29.96 in 3.0 mi SSE 8.1 mph - N/A Snow Light Snow
1:35 AM 24.8 °F 19.1 °F 21.2 °F 86% 29.96 in 3.0 mi SE 4.6 mph - N/A Snow Light Snow
1:55 AM 26.6 °F - 21.2 °F 80% 29.96 in 2.0 mi Calm Calm - N/A Snow Light Snow
2:15 AM 26.6 °F - 21.2 °F 80% 29.95 in 3.0 mi Calm Calm - N/A Snow Light Snow
2:35 AM 26.6 °F 20.0 °F 21.2 °F 80% 29.96 in 1.8 mi SE 5.8 mph - N/A Snow Light Snow
2:55 AM 26.6 °F 20.0 °F 21.2 °F 80% 29.95 in 2.0 mi SE 5.8 mph - N/A Snow Light Snow
3:15 AM 26.6 °F - 21.2 °F 80% 29.96 in 2.0 mi Calm Calm - N/A Snow Light Snow
3:35 AM 26.6 °F 22.6 °F 21.2 °F 80% 29.96 in 2.5 mi East 3.5 mph - N/A Snow Light Snow
3:55 AM 26.6 °F 21.2 °F 21.2 °F 80% 29.96 in 3.0 mi SE 4.6 mph - N/A Snow Light Snow
4:15 AM 26.6 °F 22.6 °F 21.2 °F 80% 29.96 in 3.0 mi SE 3.5 mph - N/A Snow Light Snow
4:35 AM 26.6 °F 21.2 °F 21.2 °F 80% 29.96 in 5.0 mi NNE 4.6 mph - N/A Snow Light Snow
4:55 AM 26.6 °F - 21.2 °F 80% 29.97 in 4.0 mi Calm Calm - N/A Snow Light Snow
5:15 AM 26.6 °F 18.2 °F 21.2 °F 80% 29.97 in 4.0 mi NNE 8.1 mph - N/A Snow Light Snow
5:35 AM 26.6 °F 19.1 °F 21.2 °F 80% 29.97 in 7.0 mi NE 6.9 mph - N/A Snow Light Snow
5:55 AM 26.6 °F 17.5 °F 19.4 °F 74% 29.97 in 10.0 mi NNE 9.2 mph - N/A Snow Light Snow
6:15 AM 26.6 °F 19.1 °F 19.4 °F 74% 29.97 in 10.0 mi North 6.9 mph - N/A   Mostly Cloudy
6:35 AM 26.6 °F 20.0 °F 19.4 °F 74% 29.97 in 10.0 mi NE 5.8 mph - N/A   Mostly Cloudy
6:55 AM 26.6 °F 21.2 °F 19.4 °F 74% 29.96 in 10.0 mi NE 4.6 mph - N/A   Mostly Cloudy
7:15 AM 26.6 °F 21.2 °F 19.4 °F 74% 29.97 in 10.0 mi ENE 4.6 mph - N/A   Scattered Clouds
7:35 AM 26.6 °F - 19.4 °F 74% 29.97 in 10.0 mi Calm Calm - N/A   Mostly Cloudy
7:55 AM 26.6 °F 19.1 °F 19.4 °F 74% 29.97 in 10.0 mi NNE 6.9 mph - N/A   Mostly Cloudy
8:15 AM 26.6 °F 21.2 °F 19.4 °F 74% 29.97 in 10.0 mi NNE 4.6 mph - N/A   Scattered Clouds
8:35 AM 28.4 °F 23.3 °F 17.6 °F 64% 29.97 in 10.0 mi NE 4.6 mph - N/A   Mostly Cloudy
8:55 AM 28.4 °F - 19.4 °F 69% 29.97 in 10.0 mi Calm Calm - N/A   Mostly Cloudy
9:15 AM 28.4 °F - 19.4 °F 69% 29.96 in 10.0 mi Calm Calm - N/A   Mostly Cloudy
9:35 AM 28.4 °F - 17.6 °F 64% 29.96 in 10.0 mi Calm Calm - N/A   Mostly Cloudy
9:55 AM 28.4 °F - 17.6 °F 64% 29.96 in 10.0 mi Calm Calm - N/A   Mostly Cloudy
10:15 AM 28.4 °F 19.1 °F 17.6 °F 64% 29.97 in 10.0 mi SW 10.4 mph - N/A   Scattered Clouds
10:35 AM 28.4 °F 18.5 °F 17.6 °F 64% 29.96 in 10.0 mi WSW 11.5 mph - N/A   Scattered Clouds
10:55 AM 30.2 °F 23.4 °F 19.4 °F 64% 29.96 in 10.0 mi WSW 6.9 mph - N/A   Mostly Cloudy
11:15 AM 30.2 °F 21.9 °F 19.4 °F 64% 29.96 in 7.0 mi WSW 9.2 mph 16.1 mph N/A   Mostly Cloudy
11:35 AM 30.2 °F 21.3 °F 19.4 °F 64% 29.95 in 10.0 mi WSW 10.4 mph 18.4 mph N/A   Scattered Clouds
11:55 AM 30.2 °F 22.6 °F 19.4 °F 64% 29.95 in 10.0 mi WSW 8.1 mph - N/A   Scattered Clouds
12:15 PM 32.0 °F 22.5 °F 19.4 °F 60% 29.95 in 10.0 mi West 12.7 mph 18.4 mph N/A   Scattered Clouds
12:35 PM 32.0 °F 19.8 °F 19.4 °F 60% 29.94 in 7.0 mi WSW 20.7 mph 27.6 mph N/A   Scattered Clouds
12:55 PM 32.0 °F 19.2 °F 19.4 °F 60% 29.94 in 5.0 mi WSW 23.0 mph 28.8 mph N/A   Haze
1:15 PM 32.0 °F 20.8 °F 19.4 °F 60% 29.93 in 7.0 mi West 17.3 mph 31.1 mph N/A   Scattered Clouds
1:35 PM 32.0 °F 22.5 °F 19.4 °F 60% 29.93 in 10.0 mi West 12.7 mph 19.6 mph N/A   Scattered Clouds
1:55 PM 32.0 °F 18.9 °F 19.4 °F 60% 29.92 in 5.0 mi WSW 24.2 mph 29.9 mph N/A   Haze
2:15 PM 32.0 °F 23.0 °F 17.6 °F 55% 29.92 in 10.0 mi WSW 11.5 mph 18.4 mph N/A   Scattered Clouds
2:36 PM 32.0 °F 20.5 °F 17.6 °F 55% 29.91 in 10.0 mi WSW 18.4 mph 24.2 mph N/A   Clear
2:55 PM 32.0 °F 21.2 °F 17.6 °F 55% 29.91 in 10.0 mi WSW 16.1 mph 24.2 mph N/A   Scattered Clouds
3:15 PM 33.8 °F 23.9 °F 17.6 °F 52% 29.91 in 10.0 mi WSW 15.0 mph 20.7 mph N/A   Scattered Clouds
3:35 PM 33.8 °F 27.0 °F 17.6 °F 52% 29.90 in 10.0 mi WSW 8.1 mph 19.6 mph N/A   Scattered Clouds
3:55 PM 32.0 °F 21.2 °F 17.6 °F 55% 29.90 in 10.0 mi WSW 16.1 mph 23.0 mph N/A   Scattered Clouds
4:15 PM 32.0 °F 21.6 °F 17.6 °F 55% 29.90 in 10.0 mi WSW 15.0 mph 23.0 mph N/A   Clear
4:35 PM 32.0 °F 20.5 °F 17.6 °F 55% 29.89 in 10.0 mi WSW 18.4 mph 28.8 mph N/A   Clear
4:55 PM 32.0 °F 21.2 °F 17.6 °F 55% 29.89 in 10.0 mi WSW 16.1 mph 23.0 mph N/A   Clear
5:15 PM 32.0 °F 22.5 °F 17.6 °F 55% 29.89 in 10.0 mi WSW 12.7 mph 18.4 mph N/A   Clear
5:35 PM 32.0 °F 25.6 °F 14.0 °F 48% 29.89 in 10.0 mi West 6.9 mph - N/A   Scattered Clouds
5:55 PM 30.2 °F 21.9 °F 17.6 °F 60% 29.89 in 10.0 mi SW 9.2 mph - N/A   Clear
6:15 PM 30.2 °F 24.3 °F 15.8 °F 55% 29.89 in 10.0 mi SW 5.8 mph - N/A   Clear
6:35 PM 30.2 °F 22.6 °F 15.8 °F 55% 29.89 in 10.0 mi SW 8.1 mph - N/A   Clear
6:55 PM 30.2 °F 23.4 °F 15.8 °F 55% 29.89 in 10.0 mi WSW 6.9 mph 17.3 mph N/A   Clear
7:15 PM 30.2 °F 20.2 °F 15.8 °F 55% 29.90 in 10.0 mi WSW 12.7 mph 16.1 mph N/A   Clear
7:35 PM 30.2 °F 22.6 °F 14.0 °F 51% 29.90 in 10.0 mi WSW 8.1 mph - N/A   Clear
7:55 PM 30.2 °F 22.6 °F 14.0 °F 51% 29.90 in 10.0 mi WSW 8.1 mph - N/A   Clear
8:15 PM 30.2 °F 26.7 °F 12.2 °F 47% 29.90 in 10.0 mi NNW 3.5 mph - N/A   Clear
8:35 PM 28.4 °F 24.6 °F 14.0 °F 55% 29.90 in 10.0 mi West 3.5 mph - N/A   Clear
8:55 PM 28.4 °F - 12.2 °F 51% 29.90 in 10.0 mi Calm Calm - N/A   Clear
9:15 PM 28.4 °F - 12.2 °F 51% 29.89 in 10.0 mi Calm Calm - N/A   Clear
9:35 PM 28.4 °F - 10.4 °F 47% 29.90 in 10.0 mi Calm Calm - N/A   Clear
9:55 PM 26.6 °F 22.6 °F 12.2 °F 55% 29.89 in 10.0 mi North 3.5 mph - N/A   Clear
10:15 PM 26.6 °F 21.2 °F 12.2 °F 55% 29.89 in 10.0 mi ENE 4.6 mph - N/A   Clear
10:35 PM 26.6 °F - 12.2 °F 55% 29.89 in 10.0 mi Calm Calm - N/A   Clear
10:55 PM 24.8 °F - 12.2 °F 59% 29.89 in 10.0 mi Calm Calm - N/A   Scattered Clouds
11:15 PM 26.6 °F 22.6 °F 10.4 °F 51% 29.89 in 10.0 mi North 3.5 mph - N/A   Scattered Clouds
11:35 PM 28.4 °F - 10.4 °F 47% 29.89 in 10.0 mi Calm Calm - N/A   Clear
11:55 PM 26.6 °F 20.0 °F 10.4 °F 51% 29.88 in 10.0 mi NNE 5.8 mph - N/A   Scattered Clouds